Terminal Aerodrome Forecast
Issued by NWS

Home | Current Version | Previous Version | Text Only | Print | Product List | Glossary On
Versions: 1 2 3 4 5 6 7 8 9 10 11 12 13 14 15 16 17 18 19 20 21 22 23 24 25
822
FTUS44 KLZK 212347
TAFLIT
TAF
KLIT 212347Z 2200/2224 32004KT 5SM -RA BR SCT007 BKN022 OVC070
     FM220300 33002KT 5SM BR FEW007 BKN025 OVC070
     FM220600 32002KT 2SM BR SCT003 BKN007 OVC012
     FM220900 32002KT 1/2SM FG OVC003
     FM221400 35004KT 3SM BR BKN015
     FM221600 02006KT P6SM FEW025 SCT050 SCT250
     FM222000 14004KT P6SM SCT250=

USA.gov is the U.S. government's official web portal to all federal, state and local government web resources and services.